This demonstration page uses our WeatherBlox Daily Observations layout. Learn more.

Left ArrowRight Arrow

38.88101, -77.10428

Hourly Observations for May 11, 2016

Temp ( °F °C ) Dew Point ( °F °C ) Humidity (%) Winds ( mph kmh ) Pressure ( in mb ) Visibility ( mi km ) Precip ( " mm )
12:14 am 00:14 Cloudy 57 14 50 10 77 77 NE 7 11 30.21 1023 10 16 N/A
12:52 am 00:52 Cloudy 56 13.3 49 9.4 77 77 ENE 7 11 30.21 1023 10 16 N/A
1:20 am 01:20 Cloudy with Haze 55 13 50 10 82 82 ENE 9 15 30.18 1022 6 10 N/A
1:33 am 01:33 Cloudy 55 12.8 51 10.6 87 87 NE 9 15 30.18 1022 10 16 0.05 1.27
1:52 am 01:52 Cloudy with Light Rain 54 12.2 51 10.6 90 90 NNE 5 7 30.19 1022 10 16 N/A
2:52 am 02:52 Cloudy with Light Rain 55 12.8 51 10.6 87 87 ENE 6 9 30.17 1022 10 16 N/A
3:52 am 03:52 Cloudy 54 12.2 51 10.6 90 90 NE 6 9 30.18 1022 10 16 N/A
4:52 am 04:52 Cloudy 54 12.2 51 10.6 90 90 NE 6 9 30.18 1022 10 16 N/A
4:59 am 04:59 Cloudy 54 12.2 52 11.1 93 93 NE 7 11 30.18 1022 10 16 N/A
5:05 am 05:05 Cloudy 54 12.2 52 11.1 93 93 NE 7 11 30.18 1022 10 16 N/A
5:52 am 05:52 Cloudy 54 12.2 51 10.6 90 90 ENE 7 11 30.19 1022 10 16 N/A
6:04 am 06:04 Cloudy 54 12.2 51 10.6 90 90 ENE 8 13 30.18 1022 10 16 N/A
6:31 am 06:31 Cloudy 54 12.2 51 10.6 90 90 NE 7 11 30.18 1022 9 14 N/A
6:52 am 06:52 Cloudy 54 12.2 51 10.6 90 90 ENE 8 13 30.18 1022 9 14 N/A
7:39 am 07:39 Cloudy 55 12.8 52 11.1 90 90 NE 7 11 30.18 1022 10 16 N/A
7:52 am 07:52 Cloudy 55 12.8 52 11.1 90 90 NE 5 7 30.19 1023 9 14 N/A
8:15 am 08:15 Cloudy 55 12.8 52 11.1 90 90 NNE 7 11 30.21 1023 10 16 N/A
8:34 am 08:34 Cloudy 55 13 52 11 88 88 N 5 7 30.21 1023 7 11 N/A
8:46 am 08:46 Cloudy with Drizzle 55 13 52 11 88 88 N 5 7 30.21 1023 3 4 N/A
8:52 am 08:52 Cloudy with Drizzle 55 12.8 52 11.1 90 90 N 5 7 30.21 1023 2 3 N/A
9:01 am 09:01 Cloudy with Drizzle 55 12.8 52 11.1 90 90 N 5 7 30.21 1023 2 2 N/A
9:19 am 09:19 Cloudy with Drizzle 55 12.8 53 11.7 93 93 N 5 7 30.21 1023 1 2 N/A
9:45 am 09:45 Cloudy with Drizzle 55 12.8 53 11.7 93 93 N 6 9 30.21 1023 2 3 N/A
9:52 am 09:52 Cloudy with Drizzle 55 12.8 54 12.2 96 96 N 6 9 30.21 1023 2 3 0.01 0.25
9:59 am 09:59 Cloudy with Drizzle 55 12.8 54 12.2 96 96 N 6 9 30.21 1023 2 3 N/A
10:46 am 10:46 Cloudy with Drizzle 55 13 54 12 94 94 NNE 5 7 30.21 1023 2 3 N/A
10:52 am 10:52 Cloudy with Drizzle 56 13.3 54 12.2 93 93 NNE 5 7 30.20 1023 2 2 N/A
11:18 am 11:18 Cloudy with Drizzle 55 13 55 13 100 100 NNE 7 11 30.18 1022 2 3 N/A
11:29 am 11:29 Cloudy with Drizzle 56 13.3 54 12.2 93 93 NE 6 9 30.18 1022 3 5 N/A
11:41 am 11:41 Cloudy with Light Rain 56 13.3 54 12.2 93 93 NE 6 9 30.21 1023 5 8 N/A
11:52 am 11:52 Cloudy with Light Rain 56 13.3 54 12.2 93 93 NE 3 6 30.20 1023 5 8 N/A
12:16 pm 12:16 Cloudy with Light Rain 57 14 54 12 88 88 N N/A 30.21 1023 4 6 N/A
12:38 pm 12:38 Cloudy with Light Rain 57 14 54 12 88 88 ENE 3 6 30.21 1023 2 3 N/A
12:42 pm 12:42 Cloudy with Light Rain 57 14 54 12 88 88 ENE 3 6 30.21 1023 2 3 N/A
12:52 pm 12:52 Cloudy with Mist and Fog 57 13.9 55 12.8 93 93 NE 3 6 30.19 1022 2 2 0.02 0.51
1:09 pm 13:09 Cloudy with Light Rain 57 13.9 55 12.8 93 93 ENE 6 9 30.18 1022 2 3 0.01 0.25
1:20 pm 13:20 Cloudy with Light Rain 57 14 55 13 94 94 ENE 8 13 30.18 1022 4 6 N/A
1:35 pm 13:35 Cloudy with Light Rain 57 13.9 55 12.8 93 93 NE 12 19 30.18 1022 4 6 0.02 0.51
1:47 pm 13:47 Cloudy with Light Rain 57 14 55 13 94 94 NE 13 20 30.15 1021 4 6 0.03 0.76
1:52 pm 13:52 Cloudy with Light Rain 57 13.9 55 12.8 93 93 NE 12 19 30.16 1021 5 8 0.03 0.76
2:31 pm 14:31 Cloudy with Light Rain 58 14.4 55 12.8 90 90 N N/A 30.18 1022 7 11 0.01 0.25
2:52 pm 14:52 Cloudy with Light Rain 59 15 56 13.3 90 90 N N/A 30.17 1022 9 14 0.01 0.25
3:31 pm 15:31 Cloudy with Light Rain 58 14.4 56 13.3 93 93 N N/A 30.18 1022 5 8 0.03 0.76
3:34 pm 15:34 Cloudy with Rain 57 14 55 13 94 94 N N/A 30.18 1022 3 5 N/A
3:39 pm 15:39 Cloudy with Heavy Rain 58 14.4 56 13.3 93 93 NNE 9 15 30.18 1022 2 3 0.07 1.78
3:47 pm 15:47 Cloudy with Rain 57 14 55 13 94 94 NNE 8 13 30.15 1021 3 4 0.18 4.57
3:52 pm 15:52 Cloudy with Rain 58 14.4 56 13.3 93 93 NE 8 13 30.16 1021 3 5 0.21 5.33
4:04 pm 16:04 Cloudy with Light Rain 57 14 55 13 94 94 E 6 9 30.15 1021 4 6 N/A
4:17 pm 16:17 Cloudy with Light Rain 58 14.4 57 13.9 97 97 E 6 9 30.15 1021 7 11 0.01 0.25
4:26 pm 16:26 Cloudy 59 15 57 13.9 93 93 ENE 5 7 30.15 1021 9 14 0.01 0.25
4:52 pm 16:52 Cloudy 59 15 57 13.9 93 93 ENE 6 9 30.15 1021 10 16 0.01 0.25
5:52 pm 17:52 Cloudy 60 15.6 57 13.9 90 90 ENE 3 6 30.15 1021 10 16 N/A
6:36 pm 18:36 Cloudy 61 16 55 13 83 83 NE 3 6 30.15 1021 10 16 N/A
6:52 pm 18:52 Cloudy 60 15.6 56 13.3 86 86 NE 5 7 30.14 1021 10 16 N/A
7:01 pm 19:01 Cloudy 60 15.6 56 13.3 86 86 N N/A 30.15 1021 10 16 N/A
7:52 pm 19:52 Cloudy 60 15.6 56 13.3 86 86 E 6 9 30.14 1021 10 16 N/A
8:42 pm 20:42 Cloudy 59 15 55 13 88 88 ENE 5 7 30.15 1021 10 16 N/A
8:52 pm 20:52 Cloudy 59 15 56 13.3 90 90 ESE 3 6 30.15 1021 10 16 N/A
9:52 pm 21:52 Cloudy 59 15 57 13.9 93 93 N N/A 30.15 1021 9 14 N/A
10:52 pm 22:52 Cloudy with Mist and Fog 59 15 56 13.3 90 90 N 6 9 30.16 1021 5 8 N/A
11:03 pm 23:03 Cloudy with Mist and Fog 59 15 56 13.3 90 90 N 5 7 30.15 1021 6 10 N/A
11:06 pm 23:06 Cloudy with Mist and Fog 59 15 55 13 88 88 NNW 6 9 30.15 1021 4 6 N/A
11:13 pm 23:13 Cloudy with Mist and Fog 59 15 56 13.3 90 90 NNW 6 9 30.15 1021 4 6 N/A
11:52 pm 23:52 Cloudy with Mist and Fog 59 15 56 13.3 90 90 N 3 6 30.16 1021 4 6 N/A

Powered by AerisWeather